Location: Walnut Hills Mobile Home Park
(34.0445°N, 117.8184°W)
Time: 03:52:15
(UTC+00:00)

Meteor 2-2 Rocket - Pass Details

Date: 17 December 2025
Orbit: 852 x 927 km, 81.3° (Epoch: 21 January)

Event Time Altitude Azimuth Distance (km) Brightness Sun altitude
Exits shadow 12:52:02 29° 345° (NNW) 1,575 5.3 -23.9°
Maximum altitude 12:55:09 77° 264° (W) 919 4.2 -23.2°
Drops below altitude 10° 13:01:01 10° 179° (S) 2,580 6.9 -22.1°
Sets 13:03:29 0° 178° (S) 3,527 7.6 -21.6°
